San Luis Obispo, CA

10:51 PM PDT on April 21, 2018 (GMT -0700)
San Luis Obispo County-McChesney

Weather History for KSBP - April, 2013

Change the Weather History Date:

Saturday, April 6, 2013

  Actual Average Record
Temperature  
Mean Temperature 60 °F -  
Max Temperature 70 °F 67 °F 98 °F (1989)
Min Temperature 52 °F 44 °F 34 °F (1983)
Degree Days  
Heating Degree Days 4    
Growing Degree Days 10 (Base 50)    
Moisture  
Dew Point 51 °F    
Average Humidity 80    
Maximum Humidity 97    
Minimum Humidity 54    
Precipitation  
Precipitation 0.00 in - - ()
Sea Level Pressure  
Sea Level Pressure 30.13 in    
Wind  
Wind Speed 14 mph (NW)    
Max Wind Speed 25 mph    
Max Gust Speed 33 mph    
Visibility 10 miles    
Events      
Averages and records for this station are not official NWS values.
T = Trace of Precipitation, MM = Missing Value Source: NWS Daily Summary

Daily Weather History Graph

Daily Weather History Graph

Search for Another Location

Airport or City:

Astronomy

Apr. 06, 2013 Rise Set
Actual Time 6:41 AM PDT 7:28 PM PDT
Civil Twilight 6:16 AM PDT 7:54 PM PDT
Nautical Twilight 5:45 AM PDT 8:24 PM PDT
Astronomical Twilight 5:14 AM PDT 8:55 PM PDT
Moon 4:20 AM PDT (4/6) 4:09 PM PDT (4/6)
Length of Visible Light 13h 37m
Length of Day
12h 46m
Waning Crescent, 14% of the Moon is Illuminated
Apr 6
Waning Crescent
Apr 10
New
Apr 18
First Quarter
Apr 25
Full
May 2
Last Quarter

Hourly Weather History & Observations

Time (PDT) Temp. Dew Point Humidity Pressure Visibility Wind Dir Wind Speed Gust Speed Precip Events Conditions
12:35 AM 53.6 °F 51.8 °F 94% 30.15 in 10.0 mi NNW 15.0 mph 23.0 mph N/A   Squalls
12:56 AM 53.1 °F 51.1 °F 93% 30.15 in 10.0 mi NNW 15.0 mph - N/A   Clear
1:56 AM 52.0 °F 51.1 °F 97% 30.14 in 8.0 mi North 11.5 mph 23.0 mph N/A   Clear
2:56 AM 55.9 °F 46.9 °F 72% 30.12 in 10.0 mi NW 13.8 mph 26.5 mph N/A   Clear
3:56 AM 55.0 °F 46.9 °F 74% 30.12 in 10.0 mi NNW 16.1 mph 24.2 mph N/A   Clear
4:56 AM 52.0 °F 48.9 °F 89% 30.12 in 10.0 mi West 5.8 mph - N/A   Clear
5:56 AM 55.0 °F 46.9 °F 74% 30.12 in 10.0 mi NNW 13.8 mph 19.6 mph N/A   Clear
6:56 AM 52.0 °F 46.9 °F 83% 30.14 in 10.0 mi WNW 10.4 mph - N/A   Clear
7:56 AM 55.0 °F 48.0 °F 77% 30.17 in 10.0 mi NW 11.5 mph - N/A   Clear
8:56 AM 57.9 °F 48.0 °F 70% 30.17 in 10.0 mi North 12.7 mph 20.7 mph N/A   Clear
9:56 AM 62.1 °F 48.9 °F 62% 30.17 in 10.0 mi NNW 12.7 mph - N/A   Clear
10:56 AM 66.9 °F 50.0 °F 54% 30.17 in 10.0 mi NNW 10.4 mph - N/A   Clear
11:56 AM 66.0 °F 52.0 °F 60% 30.14 in 10.0 mi NW 16.1 mph - N/A   Clear
12:56 PM 69.1 °F 53.1 °F 57% 30.13 in 10.0 mi WNW 15.0 mph - N/A   Scattered Clouds
1:56 PM 66.9 °F 52.0 °F 59% 30.14 in 10.0 mi NW 21.9 mph 29.9 mph N/A   Scattered Clouds
2:56 PM 66.9 °F 52.0 °F 59% 30.12 in 10.0 mi NW 18.4 mph 28.8 mph N/A   Scattered Clouds
3:56 PM 64.9 °F 53.1 °F 65% 30.12 in 10.0 mi NW 21.9 mph 29.9 mph N/A   Scattered Clouds
4:56 PM 61.0 °F 54.0 °F 78% 30.10 in 10.0 mi NW 23.0 mph 31.1 mph N/A   Scattered Clouds
5:48 PM 59.0 °F 53.6 °F 82% 30.10 in 10.0 mi NW 23.0 mph 31.1 mph N/A   Scattered Clouds
5:56 PM 57.9 °F 54.0 °F 87% 30.11 in 10.0 mi NW 25.3 mph 33.4 mph N/A   Mostly Cloudy
6:56 PM 55.9 °F 54.0 °F 93% 30.11 in 10.0 mi NW 18.4 mph 26.5 mph N/A   Overcast
7:56 PM 55.0 °F 53.1 °F 93% 30.11 in 10.0 mi NW 13.8 mph 20.7 mph N/A   Overcast
8:56 PM 54.0 °F 52.0 °F 93% 30.11 in 10.0 mi NW 15.0 mph - N/A   Overcast
9:56 PM 53.1 °F 52.0 °F 96% 30.12 in 9.0 mi NW 6.9 mph - N/A   Mostly Cloudy
10:12 PM 53.6 °F 51.8 °F 94% 30.12 in 8.0 mi WNW 6.9 mph - N/A   Partly Cloudy
10:56 PM 53.1 °F 52.0 °F 96% 30.11 in 7.0 mi WNW 8.1 mph - N/A   Partly Cloudy
11:56 PM 53.1 °F 52.0 °F 96% 30.12 in 7.0 mi WNW 4.6 mph - N/A   Clear